Location: Kawakawa
(35.3830°S, 174.0670°E)
Time: 08:33:36
(UTC+13:00)

ISS - Pass Details

Date: 31 January 2019
Orbit: 403 x 411 km, 51.6° (Epoch: 22 February)

Event Time Altitude Azimuth Distance (km) Brightness Sun altitude
Exits shadow 06:08:46 - 261° (W) 1,960 -0.8 -6.7°
Reaches altitude 10° 06:10:25 10° 243° (WSW) 1,494 -1.3 -6.4°
Maximum altitude 06:12:22 15° 207° (SSW) 1,251 -1.3 -6.1°
Drops below altitude 10° 06:14:20 10° 171° (S) 1,497 -0.4 -5.7°
Sets 06:17:10 0° 146° (SE) 2,362 1.3 -5.2°
